| time (UTC) | temp F | wind direction | speed knots | gust knots | rain 1hr in | rain 24hr in | rain mn in | humidity % | barometer mb |
| 20260507085511 | 53 | 26 | 0.0 | 0.0 | 0.00 | 0.12 | 0.12 | 95 | 1010.5 |
| 20260507085008 | 53 | 24 | 0.0 | 0.0 | 0.00 | 0.12 | 0.12 | 95 | 1010.4 |
| 20260507084504 | 53 | 26 | 0.0 | 0.0 | 0.00 | 0.12 | 0.12 | 95 | 1010.4 |
| 20260507084001 | 53 | 26 | 0.0 | 0.0 | 0.00 | 0.12 | 0.12 | 95 | 1010.3 |
| 20260507083457 | 53 | 26 | 0.0 | 0.0 | 0.00 | 0.12 | 0.12 | 95 | 1010.2 |
| 20260507082954 | 53 | 29 | 0.0 | 0.0 | 0.00 | 0.12 | 0.12 | 95 | 1010.1 |
| 20260507082450 | 53 | 29 | 0.0 | 0.0 | 0.00 | 0.12 | 0.12 | 94 | 1010.0 |
| 20260507081947 | 53 | 29 | 0.0 | 0.0 | 0.00 | 0.12 | 0.12 | 94 | 1009.8 |
| 20260507081444 | 53 | 29 | 0.0 | 0.0 | 0.07 | 0.12 | 0.12 | 94 | 1009.8 |
| 20260507080941 | 53 | 34 | 0.0 | 0.0 | 0.07 | 0.12 | 0.12 | 94 | 1009.9 |
| 20260507080436 | 53 | 36 | 0.0 | 0.0 | 0.00 | 0.11 | 0.11 | 94 | 1009.7 |
| 20260507075931 | 53 | 24 | 0.0 | 0.0 | 0.00 | 0.11 | 0.11 | 93 | 1009.7 |
| 20260507075428 | 53 | 25 | 0.0 | 0.0 | 0.00 | 0.11 | 0.11 | 93 | 1009.7 |
| 20260507074925 | 53 | 27 | 0.0 | 0.0 | 0.00 | 0.11 | 0.11 | 93 | 1009.5 |
| 20260507074422 | 53 | 27 | 0.0 | 0.0 | 0.00 | 0.11 | 0.11 | 93 | 1009.7 |
| 20260507073920 | 53 | 32 | 0.0 | 0.0 | 0.00 | 0.11 | 0.11 | 93 | 1009.5 |
| 20260507073416 | 53 | 16 | 0.0 | 0.9 | 0.00 | 0.11 | 0.11 | 93 | 1009.7 |
| 20260507072913 | 54 | 13 | 0.0 | 0.9 | 0.00 | 0.11 | 0.11 | 93 | 1009.7 |
| 20260507072411 | 54 | 32 | 0.0 | 0.0 | 0.00 | 0.11 | 0.11 | 93 | 1009.6 |
| 20260507071908 | 54 | 19 | 0.9 | 1.7 | 0.00 | 0.11 | 0.11 | 93 | 1009.6 |
| 20260507071405 | 54 | 19 | 0.0 | 0.9 | 0.00 | 0.11 | 0.11 | 93 | 1009.6 |
| 20260507070900 | 54 | 20 | 0.0 | 0.0 | 0.00 | 0.11 | 0.11 | 93 | 1010.0 |
| 20260507070358 | 54 | 24 | 0.0 | 0.0 | 0.00 | 0.11 | 0.11 | 93 | 1010.0 |
| 20260507065855 | 54 | 39 | 0.0 | 0.9 | 0.00 | 0.11 | 0.11 | 93 | 1010.0 |
| 20260507065351 | 54 | 23 | 0.0 | 0.0 | 0.00 | 0.11 | 0.11 | 94 | 1009.8 |
| 20260507064848 | 54 | 22 | 0.0 | 0.0 | 0.00 | 0.11 | 0.11 | 94 | 1010.0 |
| 20260507064347 | 55 | 15 | 0.9 | 0.9 | 0.00 | 0.11 | 0.11 | 94 | 1010.0 |
| 20260507063845 | 55 | 22 | 0.0 | 0.0 | 0.00 | 0.11 | 0.11 | 94 | 1009.7 |
| 20260507063341 | 55 | 25 | 0.0 | 0.0 | 0.00 | 0.11 | 0.11 | 94 | 1009.6 |
| 20260507062838 | 55 | 22 | 0.0 | 0.9 | 0.00 | 0.11 | 0.11 | 94 | 1009.6 |
| 20260507062335 | 55 | 30 | 0.0 | 0.0 | 0.00 | 0.11 | 0.11 | 94 | 1009.6 |
| 20260507061833 | 55 | 24 | 0.0 | 0.0 | 0.00 | 0.11 | 0.11 | 94 | 1009.8 |
| 20260507061331 | 56 | 13 | 1.7 | 1.7 | 0.00 | 0.11 | 0.11 | 94 | 1009.6 |
| 20260507060829 | 56 | 32 | 0.0 | 0.0 | 0.00 | 0.11 | 0.11 | 94 | 1009.8 |
| 20260507060325 | 56 | 25 | 0.0 | 0.9 | 0.00 | 0.11 | 0.11 | 94 | 1009.7 |
| 20260507055822 | 56 | 27 | 0.0 | 0.0 | 0.00 | 0.11 | 0.11 | 94 | 1009.6 |
| 20260507055317 | 56 | 17 | 0.9 | 0.9 | 0.00 | 0.11 | 0.11 | 94 | 1009.8 |
| 20260507054814 | 56 | 26 | 0.0 | 0.0 | 0.00 | 0.11 | 0.11 | 94 | 1009.9 |
| 20260507054310 | 56 | 24 | 0.0 | 0.0 | 0.05 | 0.11 | 0.11 | 93 | 1009.7 |
| 20260507053808 | 56 | 32 | 0.0 | 0.9 | 0.05 | 0.11 | 0.11 | 93 | 1009.9 |
| 20260507053305 | 56 | 28 | 0.0 | 0.0 | 0.00 | 0.10 | 0.10 | 93 | 1010.0 |
| 20260507052804 | 56 | 31 | 0.0 | 0.0 | 0.00 | 0.10 | 0.10 | 93 | 1009.8 |
| 20260507052300 | 56 | 29 | 0.0 | 0.0 | 0.00 | 0.10 | 0.10 | 92 | 1009.9 |
| 20260507051758 | 57 | 31 | 0.0 | 0.0 | 0.00 | 0.10 | 0.10 | 92 | 1009.6 |
| 20260507051255 | 57 | 24 | 0.0 | 0.9 | 0.00 | 0.10 | 0.10 | 91 | 1009.9 |
| 20260507050752 | 57 | 31 | 0.0 | 0.0 | 0.12 | 0.10 | 0.10 | 91 | 1009.6 |
| 20260507050248 | 57 | 20 | 0.0 | 0.0 | 0.24 | 0.10 | 0.10 | 90 | 1010.1 |
| 20260507045745 | 58 | 23 | 0.0 | 0.0 | 0.31 | 0.08 | 0.08 | 89 | 1010.2 |
| 20260507045241 | 58 | 22 | 1.7 | 2.6 | 0.31 | 0.06 | 0.06 | 88 | 1010.2 |
| 20260507044739 | 59 | 25 | 0.0 | 0.0 | 0.17 | 0.03 | 0.03 | 87 | 1009.9 |
| 20260507044235 | 59 | 20 | 0.9 | 0.9 | 0.05 | 0.01 | 0.01 | 86 | 1009.9 |
| 20260507043731 | 59 | 19 | 0.9 | 1.7 | 0.00 | 0.00 | 0.00 | 85 | 1009.4 |
| 20260507043228 | 59 | 26 | 0.0 | 0.0 | 0.00 | 0.00 | 0.00 | 84 | 1009.7 |
| 20260507042725 | 60 | 57 | 0.0 | 0.9 | 0.00 | 0.00 | 0.00 | 84 | 1009.7 |
| 20260507042226 | 60 | 20 | 0.0 | 0.9 | 0.00 | 0.00 | 0.00 | 82 | 1009.7 |
| 20260507041724 | 61 | 19 | 0.9 | 0.9 | 0.00 | 0.00 | 0.00 | 81 | 1009.6 |
| 20260507041220 | 61 | 34 | 0.9 | 0.9 | 0.00 | 0.00 | 0.00 | 80 | 1009.6 |
| 20260507040717 | 62 | 21 | 1.7 | 2.6 | 0.00 | 0.00 | 0.00 | 80 | 1009.7 |
| 20260507040213 | 62 | 351 | 0.9 | 0.9 | 0.00 | 0.00 | 0.00 | 80 | 1009.2 |
| 20260507035709 | 62 | 24 | 0.0 | 0.0 | 0.00 | 0.14 | 0.14 | 80 | 1009.0 |
| 20260507035205 | 62 | 26 | 0.0 | 0.0 | 0.00 | 0.14 | 0.14 | 80 | 1008.7 |
| 20260507034702 | 62 | 30 | 0.0 | 0.0 | 0.00 | 0.14 | 0.14 | 79 | 1008.7 |
| 20260507034159 | 62 | 15 | 1.7 | 2.6 | 0.00 | 0.14 | 0.14 | 79 | 1009.1 |
| 20260507033658 | 63 | 24 | 0.0 | 0.0 | 0.00 | 0.14 | 0.14 | 78 | 1008.8 |
| 20260507033155 | 63 | 15 | 1.7 | 2.6 | 0.00 | 0.14 | 0.14 | 77 | 1009.0 |
| 20260507032652 | 63 | 16 | 1.7 | 1.7 | 0.00 | 0.14 | 0.14 | 77 | 1009.2 |
| 20260507032148 | 63 | 351 | 1.7 | 1.7 | 0.00 | 0.14 | 0.14 | 77 | 1008.9 |
| 20260507031645 | 63 | 345 | 1.7 | 2.6 | 0.00 | 0.14 | 0.14 | 77 | 1008.8 |
| 20260507031141 | 63 | 13 | 0.0 | 0.9 | 0.00 | 0.14 | 0.14 | 77 | 1009.0 |
| 20260507030638 | 63 | 17 | 0.0 | 0.9 | 0.00 | 0.14 | 0.14 | 77 | 1008.9 |
| 20260507030136 | 63 | 355 | 0.9 | 1.7 | 0.00 | 0.14 | 0.14 | 77 | 1008.7 |
| 20260507025633 | 63 | 18 | 0.9 | 0.9 | 0.00 | 0.14 | 0.14 | 77 | 1008.6 |
| 20260507025130 | 63 | 48 | 0.9 | 1.7 | 0.00 | 0.14 | 0.14 | 77 | 1008.5 |
| 20260507024628 | 63 | 17 | 0.0 | 0.9 | 0.00 | 0.14 | 0.14 | 77 | 1008.6 |
| 20260507024125 | 64 | 24 | 0.9 | 0.9 | 0.00 | 0.14 | 0.14 | 77 | 1008.7 |
| 20260507023620 | 64 | 15 | 0.9 | 0.9 | 0.00 | 0.14 | 0.14 | 77 | 1008.6 |
| 20260507023118 | 64 | 14 | 0.9 | 1.7 | 0.00 | 0.14 | 0.14 | 77 | 1008.5 |
| 20260507022614 | 64 | 13 | 0.9 | 0.9 | 0.00 | 0.14 | 0.14 | 77 | 1008.4 |
| 20260507022110 | 64 | 22 | 0.9 | 0.9 | 0.00 | 0.14 | 0.14 | 77 | 1008.6 |
| 20260507021606 | 64 | 7 | 1.7 | 1.7 | 0.00 | 0.14 | 0.14 | 77 | 1008.4 |
| 20260507021102 | 65 | 27 | 0.0 | 0.0 | 0.00 | 0.14 | 0.14 | 77 | 1008.6 |
| 20260507020601 | 65 | 49 | 1.7 | 2.6 | 0.00 | 0.14 | 0.14 | 78 | 1008.8 |
| 20260507020056 | 65 | 32 | 0.0 | 0.0 | 0.00 | 0.14 | 0.14 | 79 | 1008.5 |
| 20260507015555 | 66 | 22 | 0.0 | 0.9 | 0.00 | 0.14 | 0.14 | 80 | 1008.4 |
| 20260507015052 | 66 | 7 | 3.5 | 3.5 | 0.00 | 0.14 | 0.14 | 81 | 1008.1 |
| 20260507014549 | 66 | 21 | 0.9 | 1.7 | 0.00 | 0.14 | 0.14 | 82 | 1008.0 |
| 20260507014044 | 66 | 23 | 0.0 | 0.9 | 0.00 | 0.14 | 0.14 | 82 | 1008.3 |
| 20260507013542 | 66 | 16 | 0.9 | 0.9 | 0.00 | 0.14 | 0.14 | 83 | 1008.4 |
| 20260507013039 | 66 | 21 | 0.9 | 0.9 | 0.00 | 0.14 | 0.14 | 83 | 1008.4 |
| 20260507012536 | 66 | 19 | 0.0 | 0.0 | 0.00 | 0.14 | 0.14 | 84 | 1008.4 |
| 20260507012032 | 66 | 31 | 0.0 | 0.9 | 0.00 | 0.14 | 0.14 | 84 | 1008.4 |
| 20260507011530 | 66 | 22 | 0.0 | 0.0 | 0.00 | 0.14 | 0.14 | 86 | 1008.3 |
| 20260507011025 | 66 | 20 | 0.9 | 0.9 | 0.00 | 0.14 | 0.14 | 89 | 1008.4 |
| 20260507010520 | 66 | 8 | 1.7 | 2.6 | 0.00 | 0.14 | 0.14 | 90 | 1008.5 |
| 20260507010017 | 66 | 16 | 0.9 | 0.9 | 0.00 | 0.14 | 0.14 | 89 | 1008.2 |
| 20260507005515 | 66 | 34 | 0.0 | 0.0 | 0.00 | 0.14 | 0.14 | 89 | 1008.0 |
| 20260507005011 | 66 | 34 | 0.0 | 0.0 | 0.00 | 0.14 | 0.14 | 89 | 1007.9 |
| 20260507004508 | 66 | 34 | 0.0 | 0.0 | 0.00 | 0.14 | 0.14 | 88 | 1008.1 |
| 20260507004005 | 66 | 34 | 0.0 | 0.0 | 0.00 | 0.14 | 0.14 | 88 | 1008.0 |
| 20260507003500 | 66 | 34 | 0.0 | 0.0 | 0.00 | 0.14 | 0.14 | 88 | 1008.0 |
| 20260507002955 | 67 | 34 | 0.0 | 0.0 | 0.00 | 0.14 | 0.14 | 87 | 1007.8 |
| 20260507002452 | 67 | 34 | 0.0 | 0.0 | 0.00 | 0.14 | 0.14 | 87 | 1008.0 |
| 20260507001949 | 67 | 36 | 0.0 | 0.0 | 0.00 | 0.14 | 0.14 | 87 | 1007.8 |
| 20260507001446 | 67 | 36 | 0.0 | 0.0 | 0.00 | 0.14 | 0.14 | 86 | 1007.6 |
| 20260507000943 | 67 | 36 | 0.0 | 0.0 | 0.00 | 0.14 | 0.14 | 84 | 1007.8 |
| 20260507000438 | 67 | 36 | 0.0 | 0.0 | 0.00 | 0.14 | 0.14 | 84 | 1007.7 |
| 20260506235934 | 68 | 37 | 0.0 | 0.9 | 0.00 | 0.14 | 0.14 | 84 | 1007.5 |
| 20260506235432 | 68 | 37 | 0.0 | 0.0 | 0.00 | 0.14 | 0.14 | 84 | 1007.5 |
| 20260506234922 | 68 | 41 | 0.0 | 0.0 | 0.00 | 0.14 | 0.14 | 80 | 1007.3 |
| 20260506234420 | 68 | 46 | 0.9 | 0.9 | 0.00 | 0.14 | 0.14 | 80 | 1007.3 |
| 20260506233918 | 68 | 40 | 0.0 | 0.0 | 0.00 | 0.14 | 0.14 | 81 | 1007.3 |
| 20260506233414 | 69 | 40 | 0.0 | 0.0 | 0.00 | 0.14 | 0.14 | 81 | 1007.4 |
| 20260506232910 | 69 | 40 | 0.0 | 0.9 | 0.00 | 0.14 | 0.14 | 82 | 1007.3 |
| 20260506232406 | 69 | 37 | 0.0 | 0.9 | 0.00 | 0.14 | 0.14 | 80 | 1007.0 |
| 20260506231902 | 69 | 42 | 0.0 | 0.0 | 0.00 | 0.14 | 0.14 | 81 | 1007.1 |
| 20260506231400 | 69 | 38 | 0.0 | 0.0 | 0.00 | 0.14 | 0.14 | 80 | 1006.9 |
| 20260506230857 | 70 | 38 | 0.0 | 0.0 | 0.00 | 0.14 | 0.14 | 79 | 1007.0 |
| 20260506230354 | 70 | 39 | 0.0 | 0.0 | 0.00 | 0.14 | 0.14 | 80 | 1007.2 |
| 20260506225850 | 70 | 44 | 0.9 | 0.9 | 0.00 | 0.14 | 0.14 | 75 | 1007.1 |
| 20260506225348 | 71 | 24 | 0.0 | 0.0 | 0.00 | 0.14 | 0.14 | 78 | 1007.0 |
| 20260506224844 | 71 | 23 | 0.0 | 0.0 | 0.00 | 0.14 | 0.14 | 77 | 1006.9 |
| 20260506224342 | 70 | 25 | 0.0 | 0.0 | 0.00 | 0.14 | 0.14 | 78 | 1006.8 |
| 20260506223838 | 70 | 23 | 0.0 | 0.0 | 0.00 | 0.14 | 0.14 | 76 | 1006.9 |
| 20260506223333 | 69 | 29 | 0.0 | 0.0 | 0.00 | 0.14 | 0.14 | 77 | 1006.9 |
| 20260506222831 | 69 | 34 | 0.0 | 0.0 | 0.00 | 0.14 | 0.14 | 78 | 1007.3 |
| 20260506222326 | 69 | 58 | 1.7 | 1.7 | 0.00 | 0.14 | 0.14 | 77 | 1007.1 |
| 20260506221824 | 69 | 35 | 0.0 | 0.9 | 0.00 | 0.14 | 0.14 | 77 | 1007.0 |
| 20260506221321 | 69 | 36 | 0.0 | 0.0 | 0.00 | 0.14 | 0.14 | 76 | 1007.2 |
| 20260506220819 | 70 | 39 | 0.9 | 1.7 | 0.00 | 0.14 | 0.14 | 77 | 1007.1 |
| 20260506220319 | 70 | 37 | 0.9 | 0.9 | 0.00 | 0.14 | 0.14 | 77 | 1007.1 |
| 20260506215816 | 70 | 31 | 0.0 | 0.0 | 0.00 | 0.14 | 0.14 | 75 | 1007.0 |
| 20260506215312 | 70 | 50 | 0.0 | 0.9 | 0.00 | 0.14 | 0.14 | 74 | 1007.0 |
| 20260506214808 | 71 | 91 | 3.5 | 3.5 | 0.00 | 0.14 | 0.14 | 73 | 1007.0 |
| 20260506214305 | 71 | 26 | 0.0 | 0.0 | 0.00 | 0.14 | 0.14 | 74 | 1006.8 |
| 20260506213803 | 71 | 23 | 0.0 | 0.9 | 0.00 | 0.14 | 0.14 | 74 | 1006.9 |
| 20260506213300 | 71 | 49 | 0.0 | 0.9 | 0.00 | 0.14 | 0.14 | 74 | 1006.8 |
| 20260506212757 | 71 | 41 | 0.9 | 1.7 | 0.00 | 0.14 | 0.14 | 73 | 1006.8 |
| 20260506212253 | 71 | 84 | 0.9 | 1.7 | 0.00 | 0.14 | 0.14 | 73 | 1006.7 |
| 20260506211748 | 71 | 72 | 2.6 | 2.6 | 0.00 | 0.14 | 0.14 | 72 | 1006.7 |
| 20260506211245 | 71 | 42 | 0.9 | 0.9 | 0.00 | 0.14 | 0.14 | 72 | 1006.8 |
| 20260506210742 | 70 | 1 | 2.6 | 3.5 | 0.00 | 0.14 | 0.14 | 74 | 1006.6 |
| 20260506210239 | 70 | 37 | 0.9 | 1.7 | 0.00 | 0.14 | 0.14 | 74 | 1006.6 |
| 20260506205736 | 70 | 97 | 2.6 | 2.6 | 0.00 | 0.14 | 0.14 | 73 | 1006.6 |
| 20260506205231 | 71 | 71 | 0.9 | 1.7 | 0.00 | 0.14 | 0.14 | 72 | 1006.5 |
| 20260506204729 | 71 | 59 | 0.9 | 1.7 | 0.00 | 0.14 | 0.14 | 71 | 1006.5 |
| 20260506204226 | 71 | 35 | 0.9 | 0.9 | 0.00 | 0.14 | 0.14 | 72 | 1006.3 |
| 20260506203724 | 72 | 136 | 3.5 | 5.2 | 0.00 | 0.14 | 0.14 | 69 | 1006.5 |
| 20260506203221 | 72 | 35 | 0.9 | 0.9 | 0.00 | 0.14 | 0.14 | 69 | 1006.5 |
| 20260506202719 | 73 | 32 | 0.0 | 0.9 | 0.00 | 0.14 | 0.14 | 72 | 1006.6 |
| 20260506202215 | 72 | 16 | 0.9 | 1.7 | 0.00 | 0.14 | 0.14 | 69 | 1006.5 |
| 20260506201712 | 73 | 56 | 1.7 | 2.6 | 0.00 | 0.14 | 0.14 | 69 | 1006.3 |
| 20260506201208 | 73 | 191 | 1.7 | 3.5 | 0.00 | 0.14 | 0.14 | 67 | 1006.5 |
| 20260506200705 | 74 | 358 | 3.5 | 5.2 | 0.00 | 0.14 | 0.14 | 66 | 1006.4 |
| 20260506200202 | 74 | 278 | 1.7 | 2.6 | 0.00 | 0.14 | 0.14 | 67 | 1006.4 |
| 20260506195658 | 74 | 67 | 0.9 | 1.7 | 0.00 | 0.14 | 0.14 | 67 | 1006.4 |
| 20260506195155 | 74 | 125 | 3.5 | 3.5 | 0.00 | 0.14 | 0.14 | 67 | 1006.5 |
| 20260506194652 | 73 | 326 | 0.0 | 0.9 | 0.00 | 0.14 | 0.14 | 68 | 1006.5 |
| 20260506194148 | 73 | 333 | 3.5 | 6.1 | 0.00 | 0.14 | 0.14 | 66 | 1006.4 |
| 20260506193646 | 73 | 38 | 1.7 | 1.7 | 0.00 | 0.14 | 0.14 | 66 | 1006.6 |
| 20260506193143 | 73 | 18 | 0.9 | 1.7 | 0.00 | 0.14 | 0.14 | 68 | 1006.5 |
| 20260506192640 | 73 | 30 | 0.9 | 1.7 | 0.00 | 0.14 | 0.14 | 72 | 1006.4 |
| 20260506192136 | 72 | 359 | 1.7 | 2.6 | 0.00 | 0.14 | 0.14 | 71 | 1006.6 |
| 20260506191633 | 71 | 73 | 1.7 | 1.7 | 0.00 | 0.14 | 0.14 | 72 | 1006.7 |
| 20260506191129 | 71 | 79 | 3.5 | 7.8 | 0.00 | 0.14 | 0.14 | 71 | 1006.8 |
| 20260506190626 | 71 | 17 | 1.7 | 2.6 | 0.00 | 0.14 | 0.14 | 75 | 1006.9 |
| 20260506190123 | 71 | 325 | 3.5 | 5.2 | 0.00 | 0.14 | 0.14 | 75 | 1006.8 |
| 20260506185620 | 69 | 356 | 1.7 | 1.7 | 0.00 | 0.14 | 0.14 | 76 | 1006.9 |
| 20260506185116 | 69 | 269 | 2.6 | 3.5 | 0.00 | 0.14 | 0.14 | 76 | 1007.2 |
| 20260506184614 | 69 | 356 | 1.7 | 2.6 | 0.00 | 0.14 | 0.14 | 75 | 1007.4 |
| 20260506184111 | 68 | 38 | 1.7 | 2.6 | 0.00 | 0.14 | 0.14 | 79 | 1007.3 |
| 20260506183608 | 68 | 3 | 0.9 | 1.7 | 0.00 | 0.14 | 0.14 | 80 | 1007.1 |
| 20260506183103 | 67 | 334 | 0.0 | 0.9 | 0.00 | 0.14 | 0.14 | 78 | 1007.3 |
| 20260506182601 | 67 | 83 | 3.5 | 3.5 | 0.00 | 0.14 | 0.14 | 79 | 1007.2 |
| 20260506182058 | 67 | 12 | 0.9 | 1.7 | 0.00 | 0.14 | 0.14 | 79 | 1007.2 |
| 20260506181556 | 67 | 50 | 1.7 | 1.7 | 0.00 | 0.14 | 0.14 | 79 | 1007.3 |
| 20260506181053 | 67 | 5 | 4.3 | 6.1 | 0.00 | 0.14 | 0.14 | 79 | 1007.5 |
| 20260506180549 | 67 | 101 | 4.3 | 6.1 | 0.00 | 0.14 | 0.14 | 79 | 1007.5 |
| 20260506180046 | 67 | 29 | 2.6 | 2.6 | 0.00 | 0.14 | 0.14 | 78 | 1007.5 |
| 20260506175542 | 67 | 5 | 0.9 | 0.9 | 0.00 | 0.14 | 0.14 | 79 | 1007.5 |
| 20260506175039 | 67 | 8 | 1.7 | 2.6 | 0.00 | 0.14 | 0.14 | 79 | 1007.7 |
| 20260506174538 | 67 | 111 | 1.7 | 2.6 | 0.00 | 0.14 | 0.14 | 81 | 1007.4 |
| 20260506174033 | 67 | 71 | 1.7 | 1.7 | 0.00 | 0.14 | 0.14 | 80 | 1007.5 |
| 20260506173531 | 66 | 228 | 4.3 | 5.2 | 0.00 | 0.14 | 0.14 | 83 | 1007.5 |
| 20260506173028 | 66 | 339 | 2.6 | 6.1 | 0.00 | 0.14 | 0.14 | 82 | 1007.5 |
| 20260506172525 | 66 | 269 | 2.6 | 3.5 | 0.00 | 0.14 | 0.14 | 82 | 1007.5 |
| 20260506172021 | 66 | 68 | 2.6 | 3.5 | 0.00 | 0.14 | 0.14 | 82 | 1007.6 |
| 20260506171519 | 66 | 24 | 0.0 | 0.0 | 0.00 | 0.14 | 0.14 | 82 | 1007.6 |
| 20260506171017 | 66 | 13 | 1.7 | 1.7 | 0.00 | 0.14 | 0.14 | 83 | 1007.6 |
| 20260506170514 | 65 | 6 | 1.7 | 1.7 | 0.00 | 0.14 | 0.14 | 84 | 1007.6 |
| 20260506170011 | 65 | 209 | 5.2 | 7.0 | 0.00 | 0.14 | 0.14 | 84 | 1007.7 |
| 20260506165510 | 65 | 84 | 1.7 | 2.6 | 0.00 | 0.14 | 0.14 | 84 | 1007.7 |
| 20260506165005 | 65 | 42 | 1.7 | 1.7 | 0.00 | 0.14 | 0.14 | 84 | 1007.9 |
| 20260506164502 | 64 | 32 | 0.9 | 0.9 | 0.00 | 0.14 | 0.14 | 85 | 1007.8 |
| 20260506164000 | 64 | 54 | 4.3 | 7.0 | 0.00 | 0.14 | 0.14 | 84 | 1008.0 |
| 20260506163455 | 64 | 105 | 7.0 | 8.7 | 0.00 | 0.14 | 0.14 | 86 | 1007.9 |
| 20260506162950 | 64 | 45 | 3.5 | 5.2 | 0.00 | 0.14 | 0.14 | 86 | 1007.9 |
| 20260506162448 | 64 | 113 | 1.7 | 1.7 | 0.00 | 0.14 | 0.14 | 87 | 1008.0 |
| 20260506161945 | 64 | 29 | 3.5 | 5.2 | 0.00 | 0.14 | 0.14 | 86 | 1008.1 |
| 20260506161443 | 63 | 72 | 2.6 | 5.2 | 0.00 | 0.14 | 0.14 | 86 | 1008.0 |
| 20260506160934 | 64 | 42 | 3.5 | 5.2 | 0.00 | 0.14 | 0.14 | 88 | 1008.1 |
| 20260506160431 | 64 | 41 | 1.7 | 1.7 | 0.00 | 0.14 | 0.14 | 88 | 1008.1 |
| 20260506155929 | 63 | 33 | 1.7 | 1.7 | 0.00 | 0.14 | 0.14 | 88 | 1008.0 |
| 20260506155427 | 63 | 57 | 6.1 | 9.6 | 0.00 | 0.14 | 0.14 | 88 | 1008.1 |
| 20260506153553 | 62 | 346 | 1.7 | 1.7 | 0.00 | 0.14 | 0.14 | 89 | 1008.4 |
| 20260506153051 | 62 | 120 | 1.7 | 2.6 | 0.00 | 0.14 | 0.14 | 89 | 1008.2 |
| 20260506152548 | 62 | 67 | 0.9 | 1.7 | 0.00 | 0.14 | 0.14 | 90 | 1008.2 |
| 20260506152046 | 62 | 63 | 5.2 | 7.0 | 0.00 | 0.14 | 0.14 | 90 | 1008.3 |
| 20260506151544 | 62 | 93 | 2.6 | 3.5 | 0.00 | 0.14 | 0.14 | 90 | 1008.5 |
| 20260506151041 | 62 | 6 | 0.0 | 0.9 | 0.00 | 0.14 | 0.14 | 90 | 1008.6 |
| 20260506150537 | 62 | 74 | 1.7 | 2.6 | 0.00 | 0.14 | 0.14 | 91 | 1008.8 |
| 20260506150034 | 62 | 63 | 0.9 | 1.7 | 0.00 | 0.14 | 0.14 | 91 | 1008.8 |
| 20260506145531 | 61 | 72 | 1.7 | 2.6 | 0.07 | 0.14 | 0.14 | 91 | 1008.7 |
| 20260506145028 | 62 | 42 | 0.9 | 0.9 | 0.07 | 0.14 | 0.14 | 91 | 1008.8 |
| 20260506144525 | 62 | 31 | 0.0 | 0.0 | 0.00 | 0.13 | 0.13 | 91 | 1008.7 |
| 20260506144022 | 61 | 13 | 1.7 | 3.5 | 0.12 | 0.13 | 0.13 | 91 | 1009.0 |
| 20260506143520 | 61 | 103 | 3.5 | 5.2 | 0.12 | 0.13 | 0.13 | 90 | 1009.0 |
| 20260506143018 | 62 | 74 | 7.0 | 9.6 | 0.00 | 0.11 | 0.11 | 90 | 1008.8 |
| 20260506142515 | 62 | 108 | 7.0 | 7.8 | 0.12 | 0.11 | 0.11 | 90 | 1008.8 |
| 20260506142013 | 62 | 41 | 2.6 | 3.5 | 0.19 | 0.11 | 0.11 | 90 | 1008.6 |
| 20260506141511 | 62 | 42 | 0.0 | 0.9 | 0.12 | 0.09 | 0.09 | 90 | 1008.6 |
| 20260506141009 | 62 | 69 | 1.7 | 2.6 | 0.05 | 0.08 | 0.08 | 90 | 1008.6 |
| 20260506140507 | 62 | 134 | 3.5 | 3.5 | 0.12 | 0.08 | 0.08 | 90 | 1008.8 |
| 20260506140004 | 62 | 338 | 1.7 | 1.7 | 0.07 | 0.07 | 0.07 | 90 | 1008.8 |
| 20260506135500 | 62 | 31 | 0.9 | 1.7 | 0.05 | 0.06 | 0.06 | 89 | 1008.9 |
| 20260506134956 | 62 | 80 | 2.6 | 6.1 | 0.12 | 0.06 | 0.06 | 89 | 1009.0 |
| 20260506134453 | 62 | 77 | 1.7 | 2.6 | 0.07 | 0.05 | 0.05 | 89 | 1009.1 |
| 20260506133949 | 62 | 52 | 0.9 | 0.9 | 0.07 | 0.05 | 0.05 | 89 | 1009.4 |
| 20260506133446 | 62 | 50 | 0.9 | 1.7 | 0.00 | 0.04 | 0.04 | 89 | 1009.4 |
| 20260506132943 | 62 | 104 | 3.5 | 3.5 | 0.05 | 0.04 | 0.04 | 88 | 1009.3 |
| 20260506132440 | 63 | 49 | 1.7 | 1.7 | 0.12 | 0.04 | 0.04 | 86 | 1009.0 |
| 20260506131937 | 63 | 56 | 0.9 | 0.9 | 0.14 | 0.03 | 0.03 | 86 | 1008.9 |
| 20260506131434 | 63 | 28 | 0.0 | 0.9 | 0.07 | 0.02 | 0.02 | 85 | 1008.9 |
| 20260506130931 | 63 | 15 | 0.9 | 0.9 | 0.00 | 0.01 | 0.01 | 84 | 1008.7 |
| 20260506130427 | 63 | 24 | 0.0 | 0.0 | 0.00 | 0.01 | 0.01 | 82 | 1008.7 |
| 20260506125925 | 64 | 33 | 0.0 | 0.0 | 0.05 | 0.01 | 0.01 | 82 | 1008.8 |
| 20260506125423 | 64 | 30 | 0.0 | 0.0 | 0.05 | 0.01 | 0.01 | 82 | 1008.5 |
| 20260506124922 | 64 | 40 | 0.9 | 1.7 | 0.00 | 0.00 | 0.00 | 80 | 1008.6 |
| 20260506124419 | 64 | 54 | 0.9 | 0.9 | 0.00 | 0.00 | 0.00 | 79 | 1008.5 |
| 20260506123916 | 64 | 25 | 0.9 | 0.9 | 0.00 | 0.00 | 0.00 | 79 | 1008.6 |
| 20260506123415 | 64 | 353 | 1.7 | 1.7 | 0.00 | 0.00 | 0.00 | 77 | 1008.8 |
| 20260506122911 | 64 | 73 | 0.0 | 0.9 | 0.00 | 0.00 | 0.00 | 77 | 1008.8 |
| 20260506122408 | 64 | 43 | 0.9 | 1.7 | 0.00 | 0.00 | 0.00 | 78 | 1008.9 |
| 20260506121906 | 65 | 30 | 1.7 | 1.7 | 0.00 | 0.00 | 0.00 | 76 | 1009.0 |
| 20260506121403 | 65 | 21 | 0.0 | 0.0 | 0.00 | 0.00 | 0.00 | 74 | 1009.2 |
| 20260506120859 | 65 | 61 | 1.7 | 1.7 | 0.00 | 0.00 | 0.00 | 73 | 1009.1 |
| 20260506120357 | 66 | 22 | 0.9 | 0.9 | 0.00 | 0.00 | 0.00 | 72 | 1009.3 |
| 20260506115855 | 66 | 41 | 1.7 | 1.7 | 0.00 | 0.00 | 0.00 | 71 | 1009.2 |
| 20260506115353 | 66 | 53 | 2.6 | 3.5 | 0.00 | 0.00 | 0.00 | 70 | 1009.1 |
| 20260506114850 | 66 | 70 | 1.7 | 2.6 | 0.00 | 0.00 | 0.00 | 70 | 1009.1 |
| 20260506114347 | 66 | 129 | 1.7 | 3.5 | 0.00 | 0.00 | 0.00 | 70 | 1008.9 |
| 20260506113847 | 66 | 2 | 0.9 | 1.7 | 0.00 | 0.00 | 0.00 | 69 | 1008.8 |
| 20260506113343 | 66 | 86 | 0.9 | 1.7 | 0.00 | 0.00 | 0.00 | 69 | 1008.7 |
| 20260506112840 | 66 | 353 | 1.7 | 2.6 | 0.00 | 0.00 | 0.00 | 69 | 1008.4 |
| 20260506112337 | 67 | 55 | 2.6 | 2.6 | 0.00 | 0.00 | 0.00 | 69 | 1008.5 |
| 20260506111834 | 67 | 133 | 3.5 | 5.2 | 0.00 | 0.00 | 0.00 | 68 | 1008.5 |
| 20260506111333 | 66 | 84 | 2.6 | 5.2 | 0.00 | 0.00 | 0.00 | 69 | 1008.5 |
| 20260506110830 | 66 | 66 | 0.9 | 0.9 | 0.00 | 0.00 | 0.00 | 69 | 1008.3 |
| 20260506110327 | 66 | 74 | 0.9 | 1.7 | 0.00 | 0.00 | 0.00 | 69 | 1008.5 |
| 20260506105824 | 66 | 39 | 0.9 | 1.7 | 0.00 | 0.00 | 0.00 | 69 | 1008.3 |
| 20260506105320 | 66 | 30 | 0.9 | 0.9 | 0.00 | 0.00 | 0.00 | 69 | 1008.4 |
| 20260506104818 | 66 | 33 | 0.9 | 0.9 | 0.00 | 0.00 | 0.00 | 69 | 1008.4 |
| 20260506104315 | 66 | 58 | 1.7 | 1.7 | 0.00 | 0.00 | 0.00 | 70 | 1008.2 |
| 20260506103813 | 66 | 58 | 1.7 | 1.7 | 0.00 | 0.00 | 0.00 | 69 | 1008.0 |
| 20260506103310 | 66 | 35 | 0.0 | 0.9 | 0.00 | 0.00 | 0.00 | 69 | 1008.0 |
| 20260506102808 | 66 | 140 | 2.6 | 6.1 | 0.00 | 0.00 | 0.00 | 69 | 1008.2 |
| 20260506102306 | 66 | 53 | 1.7 | 1.7 | 0.00 | 0.00 | 0.00 | 69 | 1008.0 |
| 20260506101803 | 66 | 85 | 0.9 | 1.7 | 0.00 | 0.00 | 0.00 | 69 | 1008.1 |
| 20260506101258 | 66 | 84 | 3.5 | 5.2 | 0.00 | 0.00 | 0.00 | 69 | 1007.9 |
| 20260506100756 | 66 | 94 | 2.6 | 3.5 | 0.00 | 0.00 | 0.00 | 69 | 1008.2 |
| 20260506100254 | 66 | 51 | 3.5 | 5.2 | 0.00 | 0.00 | 0.00 | 69 | 1008.1 |
| 20260506095753 | 66 | 36 | 0.0 | 0.9 | 0.00 | 0.00 | 0.00 | 68 | 1008.0 |
| 20260506095249 | 66 | 55 | 0.9 | 1.7 | 0.00 | 0.00 | 0.00 | 68 | 1008.1 |
| 20260506094746 | 66 | 39 | 0.9 | 0.9 | 0.00 | 0.00 | 0.00 | 68 | 1008.2 |
| 20260506094244 | 66 | 55 | 0.9 | 1.7 | 0.00 | 0.00 | 0.00 | 68 | 1008.2 |
| 20260506093743 | 66 | 19 | 1.7 | 2.6 | 0.00 | 0.00 | 0.00 | 68 | 1008.2 |
| 20260506093239 | 66 | 63 | 7.0 | 11.3 | 0.00 | 0.00 | 0.00 | 67 | 1008.3 |
| 20260506092737 | 67 | 76 | 1.7 | 1.7 | 0.00 | 0.00 | 0.00 | 68 | 1008.1 |
| 20260506092235 | 67 | 45 | 0.9 | 0.9 | 0.00 | 0.00 | 0.00 | 67 | 1008.2 |
| 20260506091732 | 67 | 224 | 3.5 | 5.2 | 0.00 | 0.00 | 0.00 | 67 | 1008.2 |
| 20260506091229 | 67 | 40 | 0.9 | 1.7 | 0.00 | 0.00 | 0.00 | 67 | 1008.1 |
| 20260506090727 | 67 | 73 | 2.6 | 3.5 | 0.00 | 0.00 | 0.00 | 66 | 1008.3 |
| 20260506090224 | 67 | 20 | 0.9 | 0.9 | 0.00 | 0.00 | 0.00 | 65 | 1008.2 |